Location: Unspecified
(0.0000°N, 0.0000°E)
Time: 14:43:10
(UTC+00:00)

DMSP 5D-2 F13 DEB - Pass Details

Date: 23 February 2026
Orbit: 782 x 824 km, 98.9° (Epoch: 8 March)

Event Time Altitude Azimuth Distance (km) Brightness Sun altitude
Rises 19:40:14 0° 179° (S) 3,271 ? -21.4°
Reaches altitude 10° 19:42:37 10° 184° (S) 2,338 ? -22.0°
Maximum altitude 19:47:33 47° 257° (WSW) 1,028 ? -23.2°
Drops below altitude 10° 19:52:28 10° 330° (NNW) 2,330 ? -24.4°
Sets 19:54:51 0° 336° (NNW) 3,258 ? -25.0°
